Simultaneous Nadir Overpasses (SNOs) Predictions

Prediction of SNOs between FY3D and LANDSAT-8 Satellite Orbit:

Table of predicted SNOs for the next 14.0 days since TLE Epoch: 5/21/2021
Index Date (FY3D) Time (FY3D) Lat,Lon (FY3D) SZA (FY3D ) Date (LANDSAT-8) Time (LANDSAT-8) Lat,Lon (LANDSAT-8) SZA (LANDSAT-8 ) Distance(km) Time Diff (sec)
1 05/22/2021 15:29:26 71.57, -55.58 50.98 05/22/2021 15:30:35 71.48, -54.25 50.87 47.89 69
2 05/22/2021 16:19:59 -71.06, 112.64 129.55 05/22/2021 16:20:11 -71.04, 112.67 129.58 2.96 12
3 05/22/2021 17:10:43 70.95, -79.86 50.33 05/22/2021 17:09:38 70.94, -79.84 50.32 1.36 65
4 05/25/2021 07:45:53 71.98, 59.60 50.90 05/25/2021 07:46:58 71.89, 62.32 50.78 94.13 65
5 05/25/2021 08:36:18 -71.06,-131.41 130.06 05/25/2021 08:36:41 -71.07,-131.40 130.04 2.12 23
6 05/25/2021 09:27:02 70.95, 36.09 49.83 05/25/2021 09:26:08 70.98, 36.09 49.86 3.36 54
7 05/28/2021 00:52:38 -71.10, -15.55 130.46 05/28/2021 00:53:11 -71.11, -15.47 130.46 2.72 33
8 05/28/2021 01:43:22 71.00, 151.94 49.43 05/28/2021 01:42:38 71.01, 152.02 49.44 2.79 44
9 05/30/2021 17:08:57 -71.10, 100.40 130.87 05/30/2021 17:09:42 -71.08, 100.37 130.90 2.56 45
10 05/30/2021 17:59:41 71.00, -92.12 49.02 05/30/2021 17:59:09 70.98, -92.15 49.00 2.63 32
11 06/02/2021 09:25:15 -71.10,-143.66 131.23 06/02/2021 09:26:11 -71.10,-143.72 131.23 2.12 56
12 06/02/2021 10:15:59 71.00, 23.82 48.66 06/02/2021 10:15:38 71.00, 23.76 48.66 2.18 21



Historial Predications of SNOs between FY3D and LANDSAT-8
